sat.trackr.live / text

‹ back to catalog

MARAFON-D GVM

NORAD 59072 · 2024-039V

PAYLOAD ACTIVE UNKNOWN

§ Identity

Operator
Country
CIS
Launch date
2024-02-29
Launch site
VOSTO
Launch vehicle
Mass (kg)
RCS (m²)

External: N2YO · Heavens-Above · Gunter

§ Orbital elements

Epoch: 2026-09-23T00:16:47.107776Z

Period
99.58 min
Inclination
88.9755°
Eccentricity
0.0016982
Mean motion
14.46043555 rev/d
Perigee alt
726.5 km
Apogee alt
750.7 km
Semi-major
7,116.7 km
B*
4.3425e-5
RAAN
272.0476°
Arg perigee
13.8175°
Mean anomaly
346.3490°
Rev number
13,532

§ Raw data

MARAFON-D GVM1 59072U 24039V   26266.01165634  .00000170  00000+0  43425-4 0  99982 59072  88.9755 272.0476 0016982  13.8175 346.3490 14.46043555135326

JSON: /api/v1/satellites/59072 · /tle

For live sub-satellite position, see the globe view (requires WebGL).

§ Visibility from observer

Set your observer location to see the next 7 days of passes ≥ 10°. The values pass through the URL so the page stays shareable.

No JS? Fill the form by hand. The geolocation button needs JavaScript.